Terminal Aerodrome Forecast
Issued by NWS Pueblo, CO

Home | Current Version | Previous Version | Text Only | Print | Product List | Glossary On
Versions: 1 2 3 4 5 6 7 8 9 10 11 12 13 14 15 16 17 18 19 20 21 22 23 24 25 26 27 28 29 30 31 32 33 34 35 36 37 38 39 40 41
000
FTUS45 KPUB 271720
TAFPUB
TAF
KPUB 271720Z 2718/2818 10008KT 3SM -SN BR OVC015
     FM280100 08006KT 4SM -SN BR SCT020 BKN040
     FM280900 VRB04KT P6SM VCSH FEW020 BKN080=

USA.gov is the U.S. government's official web portal to all federal, state and local government web resources and services.